Location: Concevreux
(49.3764°N, 3.7895°E)
Time: 13:54:14
(UTC+00:00)

Daily predictions for brighter satellites

Satellite Brightness Start Highest point End
(mag) Time Altitude Azimuth Time Altitude Azimuth Time Altitude Azimuth
STARLINK-1212 3.0 18:42:05 10° SW 18:45:09 59° SSE 18:48:15 10° ENE
STARLINK-1105 3.0 18:42:30 10° SW 18:45:35 59° SSE 18:48:43 10° ENE
STARLINK-1206 2.9 18:43:00 10° SW 18:46:04 60° SSE 18:49:10 10° ENE
STARLINK-1247 2.9 18:43:26 10° SW 18:46:30 60° SSE 18:49:36 10° ENE
FREGAT/IRIS 3.1 18:44:08 10° SE 18:46:38 33° ENE 18:49:10 10° N
Cosmos 1302 Rocket 4.3 18:41:31 10° NNW 18:46:40 51° ENE 18:51:48 10° SE
STARLINK-1243 4.0 18:43:03 10° SW 18:46:55 44° SE 18:50:49 10° ENE
STARLINK-1227 3.0 18:43:52 10° SW 18:46:56 61° SSE 18:50:04 10° ENE
STARLINK-1218 2.9 18:44:20 10° SW 18:47:25 61° SSE 18:50:30 10° ENE
STARLINK-1079 3.9 18:43:34 10° WNW 18:47:35 65° SSW 18:51:34 10° SE
STARLINK-1226 2.9 18:44:47 10° SW 18:47:52 62° SSE 18:50:57 10° ENE
STARLINK-1254 2.9 18:45:13 10° SW 18:48:18 62° SSE 18:51:25 10° ENE
STARLINK-1103 3.9 18:44:17 10° WNW 18:48:24 61° NNE 18:52:31 10° E
STARLINK-1215 2.9 18:45:41 10° SW 18:48:46 62° SSE 18:51:51 10° ENE
STARLINK-1231 2.9 18:46:07 10° SW 18:49:12 63° SSE 18:52:18 10° ENE
Cosmos 304 Rocket 3.8 18:44:36 10° NNW 18:49:26 87° WSW 18:54:13 10° SSE
COSMO-SKYMED 1 4.5 18:45:46 10° N 18:49:45 36° WNW 18:53:43 10° SW
Cosmos 1709 Rocket 4.1 18:43:50 10° N 18:49:57 55° ENE 18:55:57 10° SSE
STARLINK-1232 2.9 18:47:01 10° SW 18:50:06 64° SSE 18:53:12 10° ENE
STARLINK-1217 2.9 18:47:28 10° SW 18:50:33 64° SSE 18:53:40 10° ENE
Cosmos 2084 4.3 18:46:12 10° WSW 18:50:37 56° NW 18:55:03 10° NE
SeaSat 1 3.2 18:46:01 10° NNE 18:50:54 59° NW 18:55:43 10° SW
STARLINK-1208 2.9 18:47:53 10° SW 18:50:59 65° SSE 18:54:07 10° ENE
Cosmos 1953 4.1 18:49:07 10° ESE 18:51:08 14° E 18:53:09 10° NE
STARLINK-1229 2.9 18:48:21 10° SW 18:51:27 65° SSE 18:54:33 10° ENE
STARLINK-1236 3.9 18:47:46 10° SW 18:51:41 47° SE 18:55:37 10° ENE
STARLINK-1271 2.9 18:48:48 10° SW 18:51:54 66° SSE 18:55:01 10° ENE
STARLINK-1116 3.9 18:47:59 10° WNW 18:52:00 61° SSW 18:55:59 10° SE
STARLINK-1270 2.9 18:49:17 10° SW 18:52:22 66° SSE 18:55:28 10° ENE
STARLINK-1154 2.9 18:49:43 10° SW 18:52:49 67° SSE 18:55:55 10° ENE
STARLINK-1101 3.9 18:49:16 10° WNW 18:53:24 63° NNE 18:57:30 10° E
STARLINK-1197 2.8 18:50:37 10° SW 18:53:43 68° SSE 18:56:49 10° ENE
STARLINK-1189 2.8 18:51:04 10° SW 18:54:10 68° SSE 18:57:17 10° ENE
Cosmos 1269 Rocket 4.2 18:49:25 10° S 18:54:30 50° ESE 18:59:38 10° NNE
SL-08 ROCKET BODY 4.5 18:48:38 10° N 18:54:49 89° ENE 19:00:52 10° S
STARLINK-1187 2.8 18:51:53 10° WSW 18:55:01 76° SSE 18:58:10 10° ENE
STARLINK-1188 2.8 18:51:58 10° SW 18:55:04 69° SSE 18:58:11 10° ENE
STARLINK-1198 2.8 18:51:59 10° SW 18:55:04 69° SSE 18:58:11 10° ENE
MONITOR-E 4.3 18:52:39 10° SE 18:55:09 39° ENE 18:57:40 10° N
STARLINK-1235 2.8 18:52:34 10° WSW 18:55:43 84° SSE 18:58:53 10° ENE
CZ-4C R/B 4.1 18:50:59 10° W 18:55:53 30° NNW 19:01:39 10° NE
STARLINK-1199 2.8 18:53:54 10° WSW 18:57:01 72° SSE 19:00:10 10° ENE
STARLINK-1191 2.8 18:54:21 10° WSW 18:57:28 72° SSE 19:00:37 10° ENE
STARLINK-1210 2.8 18:54:48 10° WSW 18:57:56 73° SSE 19:01:04 10° ENE
STARLINK-1221 2.8 18:55:15 10° WSW 18:58:22 73° SSE 19:01:31 10° ENE
STARLINK-1102 3.8 18:54:14 10° WNW 18:58:22 65° NNE 19:02:19 11° E
STARLINK-1219 2.8 18:55:42 10° WSW 18:58:50 74° SSE 19:01:59 10° ENE
STARLINK-1222 2.8 18:56:09 10° WSW 18:59:16 74° SSE 19:02:25 10° ENE
ISS -3.5 18:56:12 10° WNW 18:59:32 62° N 19:02:41 11° E
STARLINK-1211 2.8 18:56:36 10° WSW 18:59:43 75° SSE 19:02:52 10° ENE
STARLINK-1214 2.8 18:57:03 10° WSW 19:00:10 75° SSE 19:03:19 10° ENE
STARLINK-1245 2.8 18:57:31 10° WSW 19:00:38 75° SSE 19:03:46 10° ENE
STARLINK-1238 2.8 18:57:55 10° WSW 19:01:02 76° SSE 19:04:11 10° ENE
Cosmos 2297 3.7 18:55:23 10° NNW 19:01:06 83° ENE 19:06:48 10° SSE
STARLINK-1094 4.1 18:57:16 10° WNW 19:01:14 54° SSW 19:05:11 10° SE
STARLINK-1269 3.7 18:57:30 10° SW 19:01:29 54° SSE 19:05:28 10° ENE
STARLINK-1205 2.8 18:58:50 10° WSW 19:01:57 77° SSE 19:05:05 10° ENE
BREEZE-M DEB (TANK) 4.2 18:52:31 10° W 19:02:10 86° N 19:05:20 11° E
Cosmos 1455 Rocket 3.0 18:58:05 10° S 19:02:23 73° E 19:06:46 10° NNE
STARLINK-1204 2.8 18:59:19 10° WSW 19:02:25 78° SSE 19:05:33 10° ENE
Cosmos 2084 Rocket 4.2 18:58:51 10° NW 19:03:07 42° NE 19:06:58 12° ESE
STARLINK-1111 3.8 18:59:14 10° WNW 19:03:23 68° NNE 19:07:06 12° E
STARLINK-1117 4.2 19:02:08 10° WNW 19:06:04 50° SSW 19:09:59 10° SE
STARLINK-1200 3.7 19:02:16 10° SW 19:06:17 58° SSE 19:10:18 10° ENE
S3M 4.2 18:59:59 10° S 19:06:22 83° W 19:12:50 10° N
Cosmos 2237 Rocket 2.6 19:01:22 10° SW 19:06:58 68° WNW 19:12:37 10° NNE
Cosmos 1892 Rocket 4.3 19:03:39 10° NNW 19:08:04 58° W 19:12:27 10° S
STARLINK-1073 3.7 19:04:13 10° WNW 19:08:21 70° NNE 19:11:53 14° ESE
CZ-2C R/B 3.7 19:04:29 10° NE 19:08:30 22° E 19:12:28 10° SE
Cosmos 1626 Rocket 3.7 19:04:33 10° N 19:08:54 54° ENE 19:13:10 10° SSE
STARLINK-1078 4.3 19:06:35 10° WNW 19:10:29 47° SW 19:14:16 11° SE
Cosmos 1805 4.1 19:06:47 10° SSW 19:10:37 55° WNW 19:14:29 10° N
STARLINK-1192 3.6 19:07:00 10° SW 19:11:02 62° SSE 19:15:04 10° ENE
Cosmos 2278 Rocket 4.2 19:06:59 10° NW 19:11:47 29° WSW 19:16:34 10° SSW
STARLINK-1121 3.7 19:09:11 10° WNW 19:13:21 73° NNE 19:16:39 15° ESE
Cosmos 292 Rocket 4.4 19:10:26 10° N 19:14:54 38° ENE 19:18:32 15° ESE
STARLINK-1108 4.4 19:11:28 10° WNW 19:15:20 44° SW 19:18:58 11° SE
STARLINK-1244 3.6 19:11:54 10° SW 19:15:57 66° SSE 19:20:00 10° ENE
ARGOS 3.1 19:11:03 10° SSE 19:16:28 82° ENE 19:21:53 10° NNW
Cosmos 1602 Rocket 3.8 19:12:31 10° N 19:16:54 51° ENE 19:21:13 10° SSE
STARLINK-1106 3.7 19:14:09 10° WNW 19:18:18 76° NNE 19:21:25 17° ESE
STARLINK-1138 3.5 19:16:28 10° SW 19:20:32 70° SSE 19:24:34 10° ENE
STARLINK-1234 3.0 19:18:31 10° WSW 19:21:29 67° NNW 19:24:04 13° ENE
Cosmos 494 Rocket 4.3 19:17:44 10° SSW 19:22:53 73° WNW 19:28:06 10° NNE
MOS 1 Rocket 4.3 19:18:21 10° NNE 19:22:59 31° E 19:27:43 10° SSE
STARLINK-1112 3.6 19:19:09 10° WNW 19:23:20 80° NNE 19:26:14 19° ESE
Meteor 1-24 Rocket 4.3 19:18:15 10° NNW 19:23:41 58° W 19:28:55 10° S
USA 186 2.2 19:20:16 10° S 19:23:42 71° WSW 19:27:05 10° NNW
STARLINK-1143 3.5 19:21:21 10° WSW 19:25:25 74° SSE 19:29:16 11° ENE
MetOp-A 4.2 19:21:55 10° SSE 19:27:10 60° ENE 19:32:27 10° N
STARLINK-1128 3.6 19:24:08 10° WNW 19:28:18 83° NNE 19:31:01 21° ESE
CZ-2C R/B 3.1 19:23:51 10° S 19:28:53 76° WSW 19:33:45 10° NNW
Cosmos 1544 Rocket 3.7 19:25:35 10° SSW 19:30:00 79° WNW 19:34:28 10° N
Cosmos 1437 4.0 19:28:44 10° NNE 19:31:08 21° ENE 19:31:24 21° ENE
Cosmos 1470 2.6 19:28:08 10° S 19:31:59 70° E 19:35:53 10° NNE
STARLINK-1113 3.6 19:29:07 10° WNW 19:33:16 87° NNE 19:35:47 23° ESE
STARLINK-1241 3.5 19:29:41 10° WSW 19:33:44 81° SSE 19:37:13 14° ENE
SPOT 3 Rocket 3.5 19:30:24 10° SSE 19:35:36 76° ENE 19:40:51 10° NNW
Cosmos 1825 Rocket 4.3 19:31:50 10° N 19:35:53 33° ENE 19:37:53 23° ESE
IRIDIUM 103 4.4 19:31:34 10° N 19:36:45 58° E 19:41:53 10° SSE
STARLINK-1119 3.6 19:34:05 10° WNW 19:38:15 89° SSW 19:40:34 25° ESE
STARLINK-1239 3.5 19:34:36 10° WSW 19:38:39 85° SSE 19:41:56 15° ENE
Cosmos 2369 Rocket 2.4 19:33:50 10° NNW 19:39:29 58° ENE 19:43:14 21° SE
SJ-6B 3.3 19:37:45 10° S 19:41:48 64° W 19:45:55 10° NNW
STARLINK-1114 3.6 19:39:07 10° WNW 19:43:16 85° SSW 19:45:24 28° ESE
STARLINK-1240 3.5 19:39:19 10° WSW 19:43:23 89° SSE 19:46:29 17° ENE
Cosmos 1726 2.9 19:42:57 28° ESE 19:43:47 31° E 19:47:08 10° NNE
Aureole 2 Rocket 2.6 19:41:15 10° NNW 19:44:42 51° ENE 19:45:56 33° ESE
Ariane Rocket 4.2 19:40:09 10° S 19:44:56 42° W 19:49:46 10° NNW
Cosmos 1758 Rocket 3.8 19:41:30 10° N 19:45:45 47° ENE 19:47:54 26° SE
Cosmos 1758 3.3 19:41:53 10° S 19:45:58 90° W 19:50:06 10° N
STARLINK-1216 3.5 19:44:04 10° WSW 19:48:08 87° NNW 19:51:02 18° ENE
STARLINK-1130 (DARKSAT) 3.6 19:44:04 10° WNW 19:48:14 81° SSW 19:50:10 31° ESE
NOSS 3-3 (A) 4.4 19:43:34 10° S 19:48:46 34° ESE 19:54:30 10° NE
CZ-2C R/B 3.7 19:44:03 10° NNE 19:48:51 74° ESE 19:53:32 10° S
NOSS 3-3 (C) 4.5 19:43:42 10° S 19:48:53 34° ESE 19:54:35 10° NE
ATLAS CENTAUR R/B 4.3 19:49:16 10° NNW 19:50:16 11° N 19:51:15 10° N
STARLINK-1209 3.5 19:48:37 10° W 19:51:29 47° NNW 19:52:50 26° NE
Cosmos 1953 Rocket 4.3 19:48:07 10° N 19:52:11 34° ENE 19:53:22 29° ESE
STARLINK-1237 3.6 19:48:50 10° WSW 19:52:54 83° NNW 19:55:38 20° ENE
STARLINK-1084 3.6 19:49:02 10° WNW 19:53:12 76° SSW 19:54:56 34° SE
STARLINK-1228 3.5 19:50:50 10° W 19:53:39 46° NNW 19:54:50 27° NE
Terra 3.7 19:53:53 13° ENE 19:54:42 14° NE 19:57:05 10° NNE
Cosmos 2184 Rocket 4.0 19:48:32 10° N 19:54:52 65° ENE 19:59:37 18° SSE
IRIDIUM 106 4.2 19:49:49 10° N 19:55:04 82° E 20:00:12 10° S
STARLINK-1202 3.6 19:53:35 10° WSW 19:57:39 79° NNW 20:00:11 22° ENE
Spot 2 Rocket 4.0 19:55:41 28° ESE 19:57:46 41° ENE 20:02:34 10° N
STARLINK-1098 3.6 19:54:02 10° WNW 19:58:11 72° SSW 19:59:43 37° SE
Cosmos 1606 Rocket 4.1 19:59:07 34° ESE 20:00:00 37° E 20:04:07 10° NNE
Cosmos 1943 Rocket 2.2 19:55:22 10° NNW 20:00:56 82° WSW 20:04:35 22° SSE
Meteor 1-21 Rocket 4.2 19:55:49 10° NNW 20:01:25 87° W 20:06:08 15° S
ERBS 4.3 19:59:11 10° WNW 20:02:05 25° NNW 20:04:36 12° NE
SPOT 1/Viking Rocket 4.5 20:00:50 27° E 20:02:22 32° ENE 20:06:56 10° N
STARLINK-1123 3.7 19:59:01 10° WNW 20:03:09 68° SSW 20:04:30 40° SE
Cosmos 1943 3.7 20:01:04 21° SSE 20:04:07 35° ESE 20:09:14 10° NE
STARLINK-1246 3.7 20:00:47 10° WSW 20:04:53 75° NNW 20:07:12 25° ENE
STARLINK-67 3.6 20:02:30 10° WNW 20:04:56 35° N 20:05:16 34° NNE
SL-8 R/B 3.6 20:01:01 10° W 20:05:47 73° SSW 20:07:35 38° ESE
Meteor 2-10 4.1 20:01:08 10° S 20:06:23 62° E 20:11:53 10° NNE
STARLINK-1201 3.6 20:04:21 10° W 20:07:34 52° NNW 20:08:41 33° NE
STARLINK-1097 3.8 20:03:59 10° WNW 20:08:06 64° SSW 20:09:16 42° SSE
Resurs 1-3 3.8 20:05:32 18° S 20:08:47 68° WSW 20:13:11 10° NNW
ATLAS 2AS CENTAUR R/B 3.3 20:02:55 10° NW 20:10:30 52° NE 20:14:21 27° E
STARLINK-1224 3.7 20:07:56 10° WSW 20:12:00 70° NNW 20:13:57 29° ENE
STARLINK-1099 3.8 20:08:59 10° WNW 20:13:04 60° SSW 20:14:04 45° SSE
STARLINK-1203 3.8 20:09:20 10° W 20:13:17 66° NNW 20:15:06 30° ENE
H-2A R/B 3.9 20:11:07 10° SSW 20:15:41 29° W 20:20:12 10° NW
USA 234 3.1 20:09:11 10° ENE 20:15:45 75° SE 20:22:18 10° SW
Cosmos 2154 Rocket 4.1 20:09:38 10° N 20:15:58 61° ENE 20:18:59 31° SE
STARLINK-1225 3.8 20:12:32 10° W 20:16:36 68° NNW 20:18:23 31° ENE
USA 245 4.3 20:15:17 38° ESE 20:16:59 54° ENE 20:22:45 10° N
Aureole 3 4.0 20:13:48 10° SSW 20:17:54 67° WNW 20:23:11 10° N
STARLINK-1104 3.9 20:13:59 10° WNW 20:18:03 56° SSW 20:18:51 46° SSE
DMSP B5D2-2 4.0 20:13:07 10° NNE 20:18:22 87° WNW 20:23:36 10° SSW
Resurs 01 Rocket 1.7 20:16:28 29° S 20:18:41 76° WSW 20:23:08 10° NNW
Cosmos 1328 3.7 20:16:04 10° N 20:20:02 62° ENE 20:20:25 59° ESE
STARLINK-1233 3.7 20:17:33 10° W 20:20:36 46° N 20:21:02 42° NNE
STARLINK-1212 3.7 20:18:01 10° W 20:21:04 45° N 20:21:27 43° NNE
STARLINK-1230 3.9 20:17:18 10° W 20:21:21 65° NNW 20:22:57 34° NE
Cosmos 921 Rocket 4.5 20:18:09 10° N 20:21:21 22° NE 20:21:21 22° NE
STARLINK-1105 3.7 20:18:27 10° W 20:21:30 45° N 20:21:53 43° NNE
SL-16 R/B 3.1 20:16:05 10° SW 20:21:35 50° NW 20:27:06 10° NNE
STARLINK-1206 3.7 20:18:58 10° W 20:21:59 45° N 20:22:19 43° NNE
STARLINK-1247 3.7 20:19:24 10° W 20:22:25 45° N 20:22:44 43° N
Abrixas rocket 4.4 20:20:05 10° SW 20:20:46 15° SW 20:20:46 15° SW
STARLINK-1227 3.7 20:19:49 10° W 20:22:52 45° N 20:23:12 43° NNE
STARLINK-1144 3.9 20:18:59 10° WNW 20:23:01 52° SSW 20:23:38 47° S
Cosmos 2228 3.0 20:22:39 55° ESE 20:23:05 59° E 20:27:21 10° NNE
STARLINK-1218 3.7 20:20:19 10° W 20:23:20 45° N 20:23:36 43° N
STARLINK-1226 3.7 20:20:45 10° W 20:23:47 45° N 20:24:03 43° N
STARLINK-1254 3.7 20:21:11 10° W 20:24:14 45° N 20:24:30 43° N
STARLINK-1215 3.7 20:21:40 10° W 20:24:41 44° N 20:24:54 43° N
STARLINK-1231 3.7 20:22:07 10° W 20:25:08 44° N 20:25:19 44° N
STARLINK-1232 3.8 20:23:01 10° W 20:26:03 44° N 20:26:12 44° N
STARLINK-1243 3.9 20:22:09 10° W 20:26:12 63° NNW 20:27:36 37° NE
STARLINK-1217 3.8 20:23:29 10° W 20:26:30 44° N 20:26:38 44° N
STARLINK-1208 3.8 20:23:53 10° W 20:26:56 44° N 20:27:05 44° N
Cosmos 1953 2.8 20:23:07 10° SSW 20:27:02 58° WNW 20:30:59 10° N
STARLINK-1229 3.8 20:24:22 10° W 20:27:24 44° N 20:27:29 44° N
STARLINK-1271 3.8 20:24:49 10° W 20:27:50 44° N 20:27:56 44° N
STARLINK-1103 4.0 20:23:57 10° WNW 20:27:58 49° SW 20:28:25 46° SSW
STARLINK-1270 3.8 20:25:18 10° W 20:28:18 44° N 20:28:22 44° N
STARLINK-1154 3.8 20:25:45 10° W 20:28:45 44° N 20:28:49 43° N
STARLINK-1197 3.8 20:26:40 10° W 20:29:40 43° N 20:29:41 43° N
STARLINK-1189 3.9 20:27:07 10° W 20:30:06 43° N 20:30:06 43° N
Cosmos 1992 Rocket 4.4 20:25:28 10° NNW 20:30:36 59° WSW 20:33:07 29° S
STARLINK-1187 3.9 20:27:58 10° W 20:30:59 42° N 20:30:59 42° N
STARLINK-1236 4.0 20:26:57 10° W 20:31:00 61° NNW 20:32:12 41° NE
STARLINK-1198 3.9 20:28:00 10° W 20:30:58 43° N 20:30:58 43° N
STARLINK-1188 3.9 20:28:01 10° W 20:30:59 43° N 20:30:59 43° N
STARLINK-1235 3.9 20:28:42 10° WNW 20:31:42 42° N 20:31:42 42° N
STARLINK-1101 4.1 20:28:57 10° WNW 20:32:55 45° SW 20:33:11 45° SSW
STARLINK-1199 3.9 20:29:57 10° W 20:32:54 43° NNW 20:32:54 43° NNW
STARLINK-1191 3.9 20:30:24 10° W 20:33:19 43° NNW 20:33:19 43° NNW
STARLINK-1210 3.9 20:30:52 10° W 20:33:46 43° NNW 20:33:46 43° NNW
Nadezhda 1 Rocket 3.9 20:29:47 23° S 20:33:59 73° E 20:40:21 10° NNE
STARLINK-1221 4.0 20:31:18 10° W 20:34:12 42° NNW 20:34:12 42° NNW
STARLINK-1219 4.0 20:31:46 10° W 20:34:38 42° NNW 20:34:38 42° NNW
STARLINK-1222 4.0 20:32:14 10° W 20:35:04 42° NNW 20:35:04 42° NNW
STARLINK-1211 4.0 20:32:41 10° W 20:35:30 42° NNW 20:35:30 42° NNW
STARLINK-1214 4.0 20:33:07 10° W 20:35:56 42° NNW 20:35:56 42° NNW
ISS -2.7 20:33:05 10° WNW 20:35:39 41° WSW 20:35:39 41° WSW
STARLINK-1245 4.1 20:33:37 10° W 20:36:20 41° NNW 20:36:20 41° NNW
STARLINK-1238 4.1 20:34:00 10° W 20:36:46 41° NNW 20:36:46 41° NNW
STARLINK-1102 4.3 20:33:56 10° WNW 20:37:52 42° SW 20:37:58 42° SSW
STARLINK-1205 4.1 20:34:56 10° W 20:37:37 40° NNW 20:37:37 40° NNW
STARLINK-1204 4.1 20:35:25 10° W 20:38:03 40° NNW 20:38:03 40° NNW
STARLINK-1269 4.0 20:36:54 10° W 20:40:56 58° NNW 20:41:42 48° NNE
Cosmos 2058 Rocket 3.6 20:42:38 45° NE 20:42:38 45° NE 20:46:09 10° NNE
MetOp-B 4.1 20:40:10 40° S 20:42:10 79° WSW 20:47:34 10° NNW
STARLINK-1111 4.4 20:38:57 10° WNW 20:42:45 39° SW 20:42:45 39° SW
Cosmos 1603 3.5 20:37:34 10° SSW 20:43:12 83° ESE 20:48:51 10° NNE
Cosmos 1703 3.4 20:39:41 10° NNW 20:43:38 70° W 20:43:49 69° WSW
SPOT 5 3.4 20:44:25 38° NE 20:44:25 38° NE 20:48:01 10° N
Cosmos 2251 Rocket 3.8 20:38:48 10° SSW 20:44:09 72° WNW 20:49:33 10° NNE
Meteor 1-16 Rocket 4.2 20:40:19 17° SSW 20:44:34 78° WNW 20:50:05 10° N
STARLINK-1200 4.1 20:41:45 10° W 20:45:46 56° N 20:46:21 50° NNE
CZ-4C R/B 4.4 20:41:30 10° NW 20:46:29 24° N 20:52:09 10° ENE
IGS 5A 3.5 20:49:02 71° NNE 20:49:02 71° NNE 20:52:53 10° N
ERS-1 Rocket 3.0 20:48:37 56° E 20:48:51 57° ENE 20:53:48 10° N
CZ-2C R/B 3.1 20:44:05 10° N 20:49:11 58° WNW 20:54:15 10° SSW
Landsat 7 3.6 20:49:40 74° SE 20:50:03 82° ENE 20:54:50 10° NNW
STARLINK-1192 4.1 20:46:32 10° W 20:50:33 55° N 20:50:56 52° NNE
STARLINK-1244 4.1 20:51:29 10° W 20:55:30 54° N 20:55:40 53° N
STARLINK-1138 4.2 20:56:03 10° W 21:00:02 53° N 21:00:02 53° N
Cosmos 1656 Rocket 3.7 20:55:26 10° NNW 21:01:08 76° WSW 21:02:04 61° S
Meteor 1-11 4.4 20:57:10 10° NNW 21:02:58 72° W 21:04:29 49° SSW
Aureole 1 Rocket 4.2 21:01:51 38° S 21:04:58 66° ESE 21:11:26 10° NNE
STARLINK-1143 4.3 21:00:58 10° W 21:04:46 51° NNW 21:04:46 51° NNW
CARTOSAT-1 4.1 21:07:29 52° NNE 21:07:29 52° NNE 21:10:55 10° N
Cosmos 1726 Rocket 4.1 21:10:43 51° W 21:11:10 54° WNW 21:15:31 10° N
COSMOS 2455 3.1 21:08:42 10° NNW 21:14:39 55° NE 21:15:09 54° ENE
In-Cosmos 22 Rocket 4.4 21:14:41 10° N 21:20:10 58° ENE 21:20:10 58° ENE
Cosmos 2341 Rocket 4.0 21:15:14 10° N 21:21:37 81° W 21:22:44 63° SSW
Cosmos 1461 3.9 21:17:26 10° NNW 21:20:56 46° N 21:20:56 46° N
Cosmos 2369 Rocket 3.8 21:18:27 10° NW 21:23:09 27° WSW 21:25:03 23° SW
NOSS 3-4 (A) 3.7 21:22:06 10° NW 21:29:03 81° SW 21:30:09 67° SSE
NOSS 3-4 (C) 3.7 21:22:12 10° NW 21:29:09 82° SW 21:30:14 67° SSE
ATLAS CENTAUR R/B 4.1 21:29:42 10° N 21:31:01 11° NNE 21:31:52 11° NNE
Terra 2.4 21:32:45 55° N 21:32:45 55° N 21:36:29 10° NNW
NOSS 3-3 (A) 4.4 21:33:20 10° WSW 21:39:16 61° NW 21:46:04 10° NE
NOSS 3-3 (C) 4.4 21:33:26 10° WSW 21:39:22 62° NW 21:46:10 10° NE
SPOT 1/Viking Rocket 4.3 21:41:28 43° WSW 21:41:38 43° W 21:46:37 10° NNW
Cosmos 1943 4.1 21:42:37 10° SW 21:48:04 46° NW 21:53:32 10° NNE
Cosmos 2218 Rocket 3.9 21:42:30 10° N 21:48:36 81° W 21:48:36 81° W
USA 234 3.8 21:52:19 10° ENE 21:58:40 56° NNW 22:05:01 10° W
Cosmos 2181 Rocket 4.1 22:00:17 69° W 22:00:24 69° WNW 22:06:38 10° N
ATLAS 2AS CENTAUR R/B 3.1 21:54:16 10° NW 22:01:36 53° WSW 22:01:48 53° SW
Cosmos 407 Rocket 4.4 22:06:47 45° NNW 22:06:47 45° NNW 22:10:54 10° NNE
Cosmos 1697 Rocket 4.0 22:05:43 10° NNW 22:10:12 32° NE 22:10:12 32° NE
Mayak 1.2 22:14:26 10° NNE 22:15:32 18° NNE 22:15:32 18° NNE
Cosmos 1980 Rocket 3.7 22:31:18 10° NNW 22:35:27 29° NNE 22:35:27 29° NNE
CZ-4C R/B 3.8 22:30:36 10° NW 22:36:52 39° NNE 22:38:44 34° ENE
COSMOS 2455 4.4 22:55:01 10° NW 22:58:18 27° WNW 22:58:18 27° WNW
Terra 4.5 23:11:38 12° WNW 23:11:38 12° WNW 23:12:33 10° NW
ATLAS CENTAUR R/B 4.5 23:07:41 10° NNW 23:08:02 12° NNW 23:08:02 12° NNW
ATLAS 5 CENTAUR R/B 4.2 23:20:05 18° NNE 23:20:05 18° NNE 23:21:29 10° NE
Cosmos 1833 Rocket 4.5 23:28:31 25° NE 23:28:31 25° NE 23:30:49 10° NE
USA 234 4.1 23:34:56 10° ENE 23:41:06 46° N 23:47:16 10° WNW
SL-16 R/B 4.1 23:52:44 26° ENE 23:53:22 27° NE 23:58:25 10° N
